Showing default

O3B FM9, 40351

Orbit data source: Space-Track

O3B FM9, 40351 is a payload satellite owned by O3B (JE) that was launched on Thu, 18 Dec 2014 UTC via a SOYUZ-ST-B launch vehicle from the French Guiana (FRGUI). Payload-class satellites include a variety of spacecraft equipped with specific instruments for various scientific and technological missions. These include communications satellites like Starlink; space stations such as the ISS; scientific satellites like the Hubble; Earth observation satellites from companies like Planet Labs, Umbra, and HawkEye 360; GPS; miniature CubeSats for education and research; and military/defense satellites.

Loading next visibility...
Identifier
40351, 2014-083D
Orbit
Active
Country
Flag of UnknownUnknown / O3B
Related business
Manufacturer
Thales Alenia
Mission
Operational Commercial Communications
Bus & Motor
PRISMA?, LS-400 AOCS?
Mass
700 kg wet, ~500 kg dry
Launch date (UTC)
2014-12-18 (11 years ago)
Launch vehicle
SOYUZ-ST-B
Launch site
French Guiana (FRGUI)
Object type
Payload
Rocket body
Debris
Shape & HBR
Trap Box + 2 Pan, 6.0 m
Radar Cross Section
21.980 m², Large (>1 m²)

Expand to show TLE details & history
Last TLE update: 12 hours ago

TLE from 12 hours ago
0 O3B FM9
1 40351U 14083D   26034.29928190 -.00000026  00000-0  00000+0 0  9992
2 40351   0.0553   2.5055 0002762 311.4024  46.0617  5.00115848203378
Epoch: 2026-02-03T07:10Z
TLE epoch observation values (Epoch: 2026-02-03T07:10:57.956Z)
Latitude
-0.00729°
Longitude
118.77628°
Altitude
8,061.596 km
Speed
5.255 km/s
True Right ascension
23h 59m 59s
True Declination
0° 00' 26"
Sunlit
Object was in daylight at epoch
Visualization orbit readout
Latitude
Unknown
Longitude
Unknown
Altitude
Unknown
Speed
Unknown
Apparent Right ascension
Unknown
Apparent Declination
Unknown
Sunlit
N/A
Visualization observer readout
Local Sidereal Time
20:58:13
Azimuth
Unknown
Elevation
Unknown
Doppler factor
Unknown
Orbital elements
Apogee altitude
8,072.932 km
Perigee altitude
8,064.952 km
Semi-major axis
14,447.079 km
Eccentricity
0.00028
Inclination
0.0553°
RAAN
2.5055°
Arg. of periapsis
311.4024°
True anomaly
46.0845°
Mean anomaly
46.0617°
Eccentric anomaly
46.0731°
Mean motion
1.24989 °/min
Orbital period
288.02 mins
BSTAR
0
Loading maneuver chart data...
Computing Atmospheric mass density...
Loading historical data...
Loading historical data...
Loading historical data...
Loading historical data...
Loading historical data...
Loading historical data...
Loading historical data...
Other satellites on launch #83 in the year 2014 (2014-12-18 UTC)

Documentation

Showing up to 5 results
|